Flag for U.S.A. Weather past 2 weeks in Boca Raton, Florida, U.S.A.

Now
75 °F

Clear.


Feels Like: 73 °F
Forecast: 79 / 88 °F
Wind: No wind

Location: Pompano Beach - Pompano Beach Airpark

Current Time: Aug 3, 2015 at 6:47:27 AM

Latest Report: Aug 3, 2015 at 5:53 AM


Visibility: 10 mi

Pressure: 29.94 "Hg

Humidity: 94%

Dew point: 73 °F

Location of Boca RatonLocation

Historic Weather in Boca Raton — Graph

°F

Boca Raton temperature yesterday

Maximum temperature yesterday: 90 °F (at 11:53 AM)
Minimum temperature yesterday: 75 °F (at 7:53 PM)
Average temperature yesterday: 83 °F

Past Weeks' High & Low Weather Summary

 TemperatureHumidityPressure
High95 °F (Jul 24, 1:53 PM)94% (Jul 26, 12:53 AM)30.07 "Hg (Jul 26, 12:53 AM)
Low75 °F (Aug 2, 7:53 PM)41% (Jul 24, 1:53 PM)29.88 "Hg (Jul 26, 4:53 AM)
Average83 °F73%30.00 "Hg
* Reported Jul 19 5:53 AM — Aug 3 5:53 AM, Boca Raton, Weather by CustomWeather, © 2015

Note: Actual official high and low records may vary slightly from our data, if they occured in-between our weather recording intervals... More about our weather records

Advertising

Boca Raton weather history for previous 24 hours

 ConditionsComfort  
Time TempWeatherWind HumidityBarometerVisibility
5:53 AM
Mon, Aug 3
75 °FClear.No wind94%29.94 "Hg10 mi
4:53 AM76 °FClear.No wind91%29.93 "Hg10 mi
3:53 AM76 °FClear.No wind88%29.94 "Hg10 mi
2:53 AM76 °FClear.No wind88%29.96 "Hg10 mi
1:53 AM77 °FClear.5 mph82%29.97 "Hg10 mi
12:53 AM77 °FClear.6 mph82%29.99 "Hg10 mi
11:53 PM
Sun, Aug 2
77 °FClear.No wind82%30.00 "Hg10 mi
10:53 PM76 °FClear.6 mph91%29.99 "Hg10 mi
9:53 PM77 °FClear.3 mph85%29.98 "Hg10 mi
8:53 PM76 °FLight rain. Mostly cloudy.No wind88%29.97 "Hg7 mi
7:53 PM75 °FLight rain. Fog.6 mph88%29.98 "Hg5 mi
6:53 PM77 °FLight rain. Partly sunny.14 mph77%29.99 "Hg10 mi
5:53 PM87 °FThundershowers. Passing clouds.10 mph69%29.97 "Hg10 mi
4:53 PM87 °FSunny.9 mph65%29.96 "Hg10 mi
3:53 PM84 °FLight rain. Scattered clouds.5 mph65%29.95 "Hg10 mi
2:53 PM84 °FBroken clouds.14 mph70%29.98 "Hg10 mi
1:53 PM86 °FScattered clouds.6 mph57%29.99 "Hg10 mi
12:53 PM90 °FBroken clouds.17 mph61%29.98 "Hg10 mi
11:53 AM90 °FBroken clouds.17 mph59%29.99 "Hg10 mi
10:53 AM88 °FSunny.10 mph67%29.98 "Hg10 mi
9:53 AM87 °FSunny.10 mph67%29.98 "Hg10 mi
8:53 AM86 °FPartly sunny.9 mph70%29.97 "Hg10 mi
7:53 AM85 °FBroken clouds.7 mph72%29.96 "Hg10 mi
6:53 AM84 °FPassing clouds.9 mph65%29.95 "Hg10 mi
Weather by CustomWeather, © 2015

See weather overviewHow to use our weather pages